Glencoe, MN

11:38 PM CDT on October 17, 2017 (GMT -0500)
Glencoe Municipal

Weather History for KGYL - January, 2014

Change the Weather History Date:

Tuesday, January 7, 2014

  Actual Average (KHCD) Record (KHCD)
Temperature  
Mean Temperature -4 °F -  
Max Temperature 5 °F 15 °F 53 °F (2003)
Min Temperature -12 °F -1 °F -25 °F (1982)
Degree Days  
Heating Degree Days 68    
Moisture  
Dew Point -12 °F    
Average Humidity 65    
Maximum Humidity 70    
Minimum Humidity 57    
Precipitation  
Precipitation 0.00 in - - ()
Sea Level Pressure  
Sea Level Pressure 30.15 in    
Wind  
Wind Speed 5 mph (WSW)    
Max Wind Speed 9 mph    
Max Gust Speed -    
Visibility 10 miles    
Events      
Averages and records for this station are not official NWS values.
T = Trace of Precipitation, MM = Missing Value Source: NWS Daily Summary

Daily Weather History Graph

Daily Weather History Graph

Search for Another Location

Airport or City:

Trip Planner

Search our weather history database for the weather conditions in past years. The results will help you decide how hot, cold, wet, or windy it might be!

Date:

Astronomy

Jan. 07, 2014 Rise Set
Actual Time 7:53 AM CST 4:52 PM CST
Civil Twilight 7:20 AM CST 5:25 PM CST
Nautical Twilight 6:43 AM CST 6:02 PM CST
Astronomical Twilight 6:08 AM CST 6:37 PM CST
Moon 11:23 AM CST (1/7) No Moon Set
Length of Visible Light 10h 05m
Length of Day
8h 59m
Waxing Crescent, 46% of the Moon is Illuminated
Jan 7
Waxing Crescent
Jan 7
First Quarter
Jan 15
Full
Jan 23
Last Quarter
Jan 30
New

Hourly Weather History & Observations

Time (CST) Temp. Windchill Dew Point Humidity Pressure Visibility Wind Dir Wind Speed Gust Speed Precip Events Conditions
12:12 AM -11.4 °F -25.1 °F -19.7 °F 67% 30.15 in 10.0 mi WSW 5.8 mph - N/A   Clear
12:33 AM -11.7 °F -23.6 °F -20.2 °F 66% 30.15 in 10.0 mi WSW 4.6 mph - N/A   Clear
12:52 AM -11.9 °F -25.7 °F -20.0 °F 67% 30.14 in 10.0 mi WSW 5.8 mph - N/A   Clear
1:13 AM -11.7 °F -25.5 °F -19.7 °F 68% 30.13 in 10.0 mi WSW 5.8 mph - N/A   Clear
1:32 AM -11.6 °F -21.0 °F -19.8 °F 67% 30.13 in 10.0 mi WSW 3.5 mph - N/A   Clear
1:53 AM -12.1 °F -21.7 °F -20.2 °F 67% 30.12 in 10.0 mi WSW 3.5 mph - N/A   Clear
2:13 AM -12.3 °F -21.9 °F -20.2 °F 68% 30.13 in 10.0 mi WSW 3.5 mph - N/A   Clear
2:32 AM -12.1 °F -24.0 °F -19.8 °F 68% 30.13 in 10.0 mi SW 4.6 mph - N/A   Clear
2:53 AM -12.1 °F -21.7 °F -20.0 °F 68% 30.13 in 10.0 mi SW 3.5 mph - N/A   Clear
3:13 AM -11.7 °F -21.3 °F -19.7 °F 68% 30.13 in 10.0 mi SW 3.5 mph - N/A   Clear
3:33 AM -11.7 °F -27.1 °F -19.8 °F 67% 30.13 in 10.0 mi SW 6.9 mph - N/A   Clear
3:53 AM -11.2 °F -23.0 °F -19.3 °F 67% 30.12 in 10.0 mi SW 4.6 mph - N/A   Clear
4:13 AM -10.8 °F -24.4 °F -19.5 °F 66% 30.12 in 10.0 mi SW 5.8 mph - N/A   Clear
4:33 AM -10.3 °F -21.9 °F -18.8 °F 66% 30.12 in 10.0 mi SSW 4.6 mph - N/A   Scattered Clouds
4:53 AM -9.9 °F -19.2 °F -18.4 °F 66% 30.11 in 10.0 mi SW 3.5 mph - N/A   Mostly Cloudy
5:13 AM -9.4 °F -20.9 °F -17.9 °F 66% 30.10 in 10.0 mi SSW 4.6 mph - N/A   Overcast
5:33 AM -8.5 °F -19.8 °F -17.3 °F 65% 30.10 in 10.0 mi SW 4.6 mph - N/A   Mostly Cloudy
5:53 AM -7.8 °F -20.8 °F -16.6 °F 65% 30.10 in 10.0 mi SW 5.8 mph - N/A   Clear
6:13 AM -7.2 °F -16.1 °F -16.1 °F 65% 30.10 in 10.0 mi SW 3.5 mph - N/A   Scattered Clouds
6:33 AM -7.2 °F - -15.9 °F 66% 30.10 in 10.0 mi Calm Calm - N/A   Scattered Clouds
6:53 AM -7.2 °F -18.3 °F -15.7 °F 67% 30.11 in 10.0 mi SW 4.6 mph - N/A   Mostly Cloudy
7:12 AM -6.9 °F -17.9 °F -15.3 °F 67% 30.10 in 10.0 mi SSW 4.6 mph - N/A   Overcast
7:33 AM -6.7 °F -17.7 °F -15.3 °F 66% 30.10 in 10.0 mi SSW 4.6 mph - N/A   Mostly Cloudy
7:53 AM -6.7 °F -17.7 °F -15.0 °F 67% 30.11 in 10.0 mi SSW 4.6 mph - N/A   Clear
8:13 AM -6.3 °F - -14.8 °F 67% 30.11 in 10.0 mi Calm Calm - N/A   Clear
8:33 AM -5.8 °F -14.5 °F -14.3 °F 67% 30.12 in 10.0 mi SW 3.5 mph - N/A   Clear
8:53 AM -5.3 °F - -14.1 °F 66% 30.13 in 10.0 mi Calm Calm - N/A   Clear
9:13 AM -5.1 °F -13.6 °F -13.9 °F 66% 30.13 in 10.0 mi SSW 3.5 mph - N/A   Clear
9:33 AM -3.8 °F -12.2 °F -13.2 °F 64% 30.14 in 10.0 mi WSW 3.5 mph - N/A   Clear
9:53 AM -2.7 °F -11.0 °F -12.6 °F 63% 30.14 in 10.0 mi SSW 3.5 mph - N/A   Clear
10:13 AM -2.2 °F -12.5 °F -12.3 °F 62% 30.15 in 10.0 mi SW 4.6 mph - N/A   Clear
10:33 AM -1.1 °F -12.9 °F -11.2 °F 62% 30.15 in 10.0 mi SW 5.8 mph - N/A   Clear
10:53 AM -0.2 °F -11.8 °F -11.0 °F 60% 30.15 in 10.0 mi WSW 5.8 mph - N/A   Clear
11:13 AM 0.3 °F -11.2 °F -11.0 °F 59% 30.15 in 10.0 mi WSW 5.8 mph - N/A   Clear
11:33 AM 0.9 °F -11.9 °F -11.2 °F 57% 30.14 in 10.0 mi WSW 6.9 mph - N/A   Clear
11:53 AM 1.4 °F -6.2 °F -10.3 °F 58% 30.13 in 10.0 mi WSW 3.5 mph - N/A   Clear
12:13 PM 2.1 °F -5.4 °F -9.9 °F 57% 30.11 in 10.0 mi West 3.5 mph - N/A   Clear
12:32 PM 2.7 °F -8.4 °F -9.6 °F 57% 30.11 in 10.0 mi NW 5.8 mph - N/A   Clear
12:53 PM 3.0 °F -10.5 °F -8.9 °F 58% 30.11 in 10.0 mi WNW 8.1 mph - N/A   Clear
1:13 PM 3.7 °F -3.6 °F -8.5 °F 57% 30.11 in 10.0 mi WSW 3.5 mph - N/A   Clear
1:32 PM 3.9 °F -6.9 °F -7.8 °F 58% 30.11 in 10.0 mi West 5.8 mph - N/A   Clear
1:53 PM 4.6 °F -7.4 °F -7.8 °F 57% 30.11 in 10.0 mi WNW 6.9 mph - N/A   Clear
2:13 PM 4.8 °F -8.3 °F -7.1 °F 58% 30.11 in 10.0 mi West 8.1 mph - N/A   Clear
2:32 PM 4.6 °F -9.5 °F -6.7 °F 59% 30.12 in 10.0 mi WNW 9.2 mph - N/A   Clear
2:53 PM 5.0 °F -8.1 °F -6.5 °F 59% 30.13 in 10.0 mi West 8.1 mph - N/A   Clear
3:13 PM 5.0 °F -6.9 °F -6.2 °F 60% 30.13 in 10.0 mi West 6.9 mph - N/A   Clear
3:32 PM 4.8 °F -8.3 °F -6.3 °F 60% 30.14 in 10.0 mi WNW 8.1 mph - N/A   Clear
3:53 PM 4.6 °F -7.4 °F -6.2 °F 61% 30.14 in 10.0 mi WNW 6.9 mph - N/A   Clear
4:13 PM 4.6 °F -8.5 °F -5.8 °F 62% 30.15 in 10.0 mi WNW 8.1 mph - N/A   Clear
4:33 PM 4.5 °F -6.3 °F -6.5 °F 60% 30.15 in 10.0 mi WNW 5.8 mph - N/A   Clear
4:53 PM 4.1 °F -8.0 °F -6.5 °F 61% 30.16 in 10.0 mi West 6.9 mph - N/A   Clear
5:13 PM 3.7 °F -8.4 °F -6.5 °F 62% 30.16 in 10.0 mi West 6.9 mph - N/A   Clear
5:32 PM 3.7 °F -8.4 °F -6.2 °F 64% 30.17 in 10.0 mi West 6.9 mph - N/A   Clear
5:53 PM 3.7 °F -9.6 °F -6.2 °F 64% 30.16 in 10.0 mi West 8.1 mph - N/A   Clear
6:12 PM 3.0 °F -9.3 °F -6.3 °F 65% 30.17 in 10.0 mi West 6.9 mph - N/A   Clear
6:33 PM 2.1 °F -9.0 °F -6.9 °F 66% 30.17 in 10.0 mi West 5.8 mph - N/A   Clear
6:53 PM 1.6 °F -8.0 °F -7.4 °F 66% 30.17 in 10.0 mi West 4.6 mph - N/A   Clear
7:13 PM 1.2 °F -8.5 °F -7.4 °F 67% 30.19 in 10.0 mi West 4.6 mph - N/A   Clear
7:33 PM 1.0 °F -8.7 °F -7.6 °F 67% 30.20 in 10.0 mi West 4.6 mph - N/A   Clear
7:53 PM 0.5 °F -9.3 °F -7.6 °F 69% 30.21 in 10.0 mi WSW 4.6 mph - N/A   Clear
8:13 PM -0.0 °F -9.9 °F -8.0 °F 69% 30.22 in 10.0 mi West 4.6 mph - N/A   Clear
8:32 PM -0.6 °F -13.6 °F -8.3 °F 70% 30.20 in 10.0 mi West 6.9 mph - N/A   Clear
8:53 PM -0.4 °F -8.3 °F -8.0 °F 70% 30.20 in 10.0 mi WSW 3.5 mph - N/A   Clear
9:13 PM -0.9 °F -11.0 °F -8.5 °F 70% 30.22 in 10.0 mi West 4.6 mph - N/A   Clear
9:33 PM -1.3 °F -13.1 °F -8.9 °F 70% 30.22 in 10.0 mi West 5.8 mph - N/A   Clear
9:53 PM -2.2 °F -16.8 °F -9.9 °F 70% 30.23 in 10.0 mi WNW 8.1 mph - N/A   Clear
10:13 PM -2.2 °F -14.2 °F -10.3 °F 68% 30.23 in 10.0 mi WNW 5.8 mph - N/A   Clear
10:33 PM -2.2 °F -14.2 °F -10.3 °F 68% 30.24 in 10.0 mi West 5.8 mph - N/A   Scattered Clouds
10:52 PM -2.6 °F -14.6 °F -10.3 °F 70% 30.24 in 10.0 mi West 5.8 mph - N/A   Mostly Cloudy
11:13 PM -2.7 °F -16.2 °F -10.3 °F 70% 30.24 in 10.0 mi West 6.9 mph - N/A   Mostly Cloudy
11:32 PM -2.9 °F -15.0 °F -10.5 °F 70% 30.25 in 10.0 mi West 5.8 mph - N/A   Scattered Clouds
11:53 PM -3.1 °F -15.2 °F -10.8 °F 70% 30.25 in 10.0 mi West 5.8 mph - N/A   Clear